星链-36954(STARLINK-36954)

导读

STARLINK-36954(NORAD编号68057)是美国SpaceX公司星链(Starlink)星座的一员,属于一代低轨互联网通信卫星。星链计划旨在构建全球覆盖的高速天基互联网系统,该卫星运行在近地轨道,配备氩气离子推进系统可实现轨道机动与脱轨处置,搭载相控阵天线与空间激光链路,能提供高带宽低延迟的网络连接。2026年SpaceX启动四千颗星链卫星降轨计划,该星链卫星预计将轨道高度从550公里降至480公里,以提升太空安全,减少碰撞风险和太空碎片威胁,服务全球互联网接入服务。

基本信息
目录编号:
68057
目录名称:
STARLINK-36954
国际标识:
2026-041T
轨道中心:
EARTH
卫星名称:
星链-36954
卫星全名:
星链-36954(STARLINK-36954)
卫星状态:
在轨 (已飞行193 天)
发射日期:
2026-03-02 UTC
国别 :
美国 (US)
星等 :
--
该卫星已列入 空间交会检测服务 Space Conjunction Data Service (SCDS) ,当前飞行风险评估等级: 高风险
轨道信息
数据来源 国际轨道数据
星历时间: 2026-09-11T08:34:49+0800
12小时前
查看轨道信息
半长轴: 6840.833km
偏心率: 0.0001274
轨道倾角: 53.158°
近地点辐角 81.462°
升交点赤经 264.059°
平近点角 278.652°
近地点: 461.824km
远地点: 463.568km
周期: 93.848分钟
每日圈数: 15.344027
详细信息
固有亮度:
5
最大亮度:
2.5
卫星平台:
Starlink V1.0
覆盖范围:
全球
运营商:
太空探索技术公司
运营商所在国:
美国
制造商(研发单位):
太空探索技术公司
制造商所在国:
美国
使用方式:
暂无
卫星简介
Starlink 计划是 SpaceX 推出的全球卫星互联网项目,通过发射低轨道卫星,为全球尤其是偏远地区提供高速、低延迟的互联网服务。自 2019 年起,Starlink 已部署数千颗卫星,旨在缩小全球数字鸿沟,推动互联网普及。该项目还为军事、航空等行业提供通信支持,带来广泛经济效益。
2D轨道图
3D轨道图
轨道高度分析图
轨道倾角分析图
轨道综合分析图
查看轨道综合分析图
交会数据列表
事件ID 空间交会对象 最接近时刻(TCA) 交会距离 交会风险概率(CRP) 交会风险指数(CRI) 操作
CDM_260913-021805-230006-805721
2026-09-13T
02:18:41+0000
0.200 km
中距离
6.284853E-4 高风险 0.91
CDM_260913-065205-793706-805722
2026-09-13T
06:52:03+0000
0.253 km
中距离
3.14437E-4 高风险 0.85
CDM_260913-113105-839306-805721
2026-09-13T
11:31:24+0000
0.758 km
远距离
3.198136E-5 中风险 0.65
CDM_260913-172205-883506-805721
2026-09-13T
17:22:19+0000
1.163 km
极远距离
1.384324E-5 中风险 0.58
CDM_260913-165905-839306-805721
2026-09-13T
16:59:40+0000
1.114 km
极远距离
8.704699E-6 低风险 0.54
CDM_260912-160905-230006-805721
2026-09-12T
16:09:03+0000
1.271 km
极远距离
7.108869E-6 低风险 0.52
CDM_260913-091205-793706-805722
2026-09-13T
09:12:44+0000
1.097 km
极远距离
5.90912E-6 低风险 0.5
CDM_260911-092505-503406-805722
2026-09-11T
09:25:36+0000
1.404 km
极远距离
5.548993E-6 低风险 0.5
CDM_260912-174205-230006-805721
2026-09-12T
17:42:50+0000
2.127 km
极远距离
1.575389E-6 低风险 0.39
CDM_260913-052605-299006-805721
2026-09-13T
05:26:32+0000
2.995 km
极远距离
9.062695E-7 极低风险 0.34
与全量物体交会距离演化趋势
与全量物体交会风险概率演化趋势